Theta_e
316 316 316 316 316 316 316 317 317 318 318 318 319 319 319 320 320 320 320 320 320 320 320 320 320 320 320 320 320 321 319 315 311 309 311 309 319 333 343 350 347 361 361 350 350 346 340 339 336 339 339 341 339 337 341 341 342 336 325 318 314 317 314 317 316 313 314 310 317 327 330 328 326 330 334 338 335 335 334 334 337 339 339 341 343 346 347 347
315 315 315 316 315 316 316 317 316 317 318 318 318 319 319 319 319 320 320 320 320 319 320 320 320 320 320 320 321 321 317 314 309 308 309 319 337 337 341 347 354 363 352 344 341 337 335 334 333 336 334 333 343 336 343 336 343 327 317 315 315 317 320 322 321 318 314 311 320 328 331 329 327 332 333 329 328 330 329 332 335 334 337 342 344 345 345 346
315 315 315 315 316 315 316 316 316 317 317 317 318 318 319 319 319 319 319 320 319 319 319 319 320 320 320 320 321 320 317 311 311 304 310 338 343 342 341 345 357 362 338 336 338 333 332 333 334 334 333 333 337 334 338 331 338 334 322 314 317 323 323 323 323 322 320 316 323 326 329 329 331 332 335 328 327 329 327 328 331 332 333 337 341 343 344 345
315 315 315 315 315 316 316 316 317 317 317 317 317 318 318 318 319 319 319 319 319 319 319 319 319 320 320 320 321 318 314 314 300 304 309 343 354 349 344 345 358 359 339 337 336 332 333 334 335 334 331 328 330 336 327 330 328 326 325 319 321 324 321 324 326 326 323 325 326 327 327 328 332 333 332 329 326 326 328 333 332 332 334 337 340 342 343 342
315 315 315 315 316 316 316 317 316 317 316 317 317 317 318 318 318 318 319 318 318 319 318 319 320 320 320 320 319 318 315 296 299 307 313 354 356 357 347 347 358 352 340 337 336 333 333 332 333 333 331 325 328 328 328 329 330 323 324 327 326 323 319 324 324 325 322 325 326 326 325 327 333 332 331 329 324 323 329 333 335 336 337 338 339 341 342 341
315 315 315 315 315 316 316 316 316 317 316 317 317 317 317 317 318 318 318 318 318 318 318 319 320 320 321 320 318 314 301 291 305 307 362 356 355 353 347 349 357 347 335 333 335 334 331 330 331 328 326 325 325 324 326 330 329 318 322 323 326 326 322 325 325 325 321 321 322 324 328 330 329 328 332 330 327 330 335 337 338 339 340 341 342 342 341 341
314 314 314 315 315 315 315 316 316 316 315 316 316 316 317 317 317 317 317 317 317 318 318 319 320 320 320 320 315 316 303 300 307 309 342 356 352 350 349 356 360 339 330 323 323 327 331 327 328 327 326 325 325 325 329 324 329 322 318 322 322 324 322 325 325 326 322 318 321 328 330 327 327 324 331 329 330 333 336 339 339 340 341 342 340 341 340 341
314 314 314 315 315 315 315 315 315 315 316 316 316 316 317 317 317 316 317 317 317 318 319 319 319 320 320 317 314 301 305 304 310 312 333 362 351 349 352 346 337 334 326 322 320 317 325 324 323 326 324 322 323 325 327 325 323 320 320 324 324 324 323 324 323 324 322 317 323 326 324 325 327 327 330 327 330 335 337 339 340 340 340 340 340 340 340 340
314 314 314 315 315 315 315 315 315 315 315 316 316 316 316 316 316 316 316 317 317 318 318 319 319 319 321 317 306 297 298 307 310 310 333 339 345 342 341 337 333 328 324 322 321 318 317 318 321 324 318 321 326 323 325 320 317 322 321 322 322 322 323 324 323 323 322 319 322 319 322 324 326 328 327 326 332 336 338 338 339 339 338 338 339 340 340 340
314 314 314 314 315 315 315 315 315 315 315 316 315 316 315 316 315 316 317 317 317 317 318 319 319 319 318 315 305 294 303 308 313 324 327 338 339 337 332 336 332 326 321 321 319 316 314 313 318 323 319 316 319 321 325 322 318 321 322 323 322 323 323 323 320 322 322 319 318 316 318 317 319 326 316 330 335 337 337 336 338 338 337 338 339 340 340 340
314 314 314 314 314 315 315 315 315 315 315 315 315 315 315 315 315 316 316 316 316 317 318 318 320 318 313 314 300 295 307 314 323 327 330 337 333 331 324 334 331 325 322 320 319 318 316 314 317 320 320 315 318 317 320 323 324 323 323 319 315 316 318 318 318 320 321 317 318 316 314 314 318 323 320 330 336 337 334 335 336 336 337 337 338 339 340 341
314 313 313 314 314 314 315 315 314 315 315 315 315 314 315 315 315 315 316 316 316 317 318 319 320 319 318 313 304 302 310 313 313 325 332 330 325 326 325 334 330 326 321 316 318 318 317 315 319 318 312 318 313 315 317 321 318 313 311 306 307 309 309 311 312 317 319 316 318 316 314 312 316 316 324 333 336 336 334 334 334 335 336 337 338 339 339 340
314 314 313 314 314 314 314 314 314 315 315 314 314 314 315 315 314 315 315 316 317 317 318 319 320 319 315 299 306 312 313 312 310 312 315 326 323 320 320 328 330 326 322 318 316 319 318 316 316 316 320 319 316 311 314 317 314 310 307 305 304 302 303 308 312 314 317 316 319 318 304 306 315 318 329 335 335 335 333 332 333 334 335 336 337 337 338 340
314 314 314 314 314 313 314 314 315 314 314 314 314 313 313 313 314 315 316 316 318 317 318 321 320 318 310 301 307 316 316 315 315 314 312 318 321 320 318 323 326 323 324 318 318 320 319 319 317 316 320 317 315 319 317 315 313 306 307 308 298 298 298 307 311 313 313 318 319 319 307 306 310 323 331 334 335 333 331 332 333 333 334 335 336 336 337 339
314 314 314 314 314 314 313 314 314 313 313 313 313 313 312 311 314 317 319 318 317 319 321 321 319 316 305 303 314 318 335 327 317 314 314 310 313 313 317 319 322 322 322 321 317 318 322 320 318 314 311 318 318 313 309 303 301 303 300 297 297 297 298 305 307 312 311 317 320 317 308 308 312 325 331 334 334 333 330 331 332 333 334 335 335 336 337 338
314 314 314 314 314 314 313 313 313 313 313 312 311 311 312 313 316 321 321 318 320 323 322 317 316 316 307 296 304 331 328 318 319 323 319 313 310 309 313 317 319 321 320 319 321 320 320 320 314 313 312 313 309 305 302 301 300 298 299 296 297 296 298 301 305 307 314 316 317 317 306 313 317 326 330 333 333 332 331 331 332 332 333 334 335 336 337 337
314 314 313 314 314 313 314 313 313 313 312 311 310 311 312 316 323 322 321 322 322 322 320 315 317 319 299 307 316 310 308 317 326 324 321 316 312 311 311 314 315 315 318 319 319 318 315 315 312 312 312 306 306 305 299 297 296 294 297 295 298 298 298 298 303 305 309 316 312 316 309 312 319 326 329 331 332 331 330 330 331 332 333 334 335 336 336 336
313 313 313 314 314 314 313 313 312 312 311 310 309 310 309 316 323 322 320 321 322 321 320 322 317 307 299 308 304 305 313 312 322 322 320 319 314 311 310 311 314 315 314 314 315 311 313 308 308 302 304 305 303 299 297 295 297 295 296 296 297 299 298 300 299 302 312 315 313 312 309 311 319 326 328 330 332 330 329 330 331 331 332 333 334 335 336 336
313 313 313 313 313 313 313 312 312 311 310 310 311 314 316 319 318 316 316 316 314 302 300 307 302 293 294 305 309 308 311 319 319 318 317 315 314 313 312 314 314 311 307 307 305 310 307 306 308 301 301 301 303 303 300 300 299 297 297 297 297 296 297 297 302 305 312 311 311 311 309 310 319 324 327 328 330 329 329 330 331 331 332 332 333 334 335 336
313 313 313 313 313 313 313 312 311 310 309 306 305 306 310 301 299 305 314 312 305 302 303 306 309 305 306 307 307 312 318 319 315 316 317 318 313 310 309 311 310 310 305 303 303 306 306 301 299 300 302 303 303 303 303 302 301 301 299 298 298 297 299 302 303 305 309 310 310 310 312 312 319 323 325 327 329 328 328 328 329 330 330 331 332 333 334 335
313 312 312 313 313 313 312 311 311 309 309 306 303 299 296 297 293 293 298 300 303 304 304 304 307 308 306 309 311 311 307 310 318 314 317 323 314 310 306 308 304 303 304 305 303 305 306 299 300 301 301 302 303 302 301 300 300 300 299 297 298 298 297 302 303 306 307 309 305 309 309 312 319 323 325 327 327 325 326 327 327 329 330 331 331 332 333 335
312 312 312 312 312 312 311 311 309 309 309 304 303 299 300 301 303 305 301 294 301 303 302 303 306 304 310 311 312 312 311 306 306 308 313 318 311 307 305 305 303 301 302 302 302 300 299 299 301 302 303 303 303 303 301 300 300 300 298 298 296 298 300 303 303 305 306 306 300 307 308 309 318 323 325 326 326 327 328 328 328 329 329 329 330 331 333 334
312 312 312 312 312 311 311 309 308 308 304 302 300 302 302 305 307 307 304 299 297 303 302 302 300 302 304 308 311 313 305 303 301 306 310 315 308 309 305 303 301 301 301 302 299 297 295 299 302 302 303 303 302 302 301 300 299 298 298 296 296 300 298 296 300 304 306 304 303 306 307 308 314 321 324 327 327 327 329 329 329 330 329 329 330 331 332 332
312 312 312 312 311 310 310 308 307 304 302 301 302 304 307 307 306 305 301 294 294 298 301 302 303 302 302 302 307 310 305 303 304 304 313 311 306 306 305 304 301 301 299 301 301 299 298 300 304 303 302 302 301 301 300 299 299 299 298 298 298 299 299 299 299 302 303 305 306 306 307 306 310 314 318 324 328 327 327 328 329 330 331 331 332 332 333 332
313 312 312 312 310 310 307 307 301 301 303 302 303 308 307 307 306 305 298 294 294 295 303 302 304 303 304 309 310 306 306 305 306 308 311 313 307 305 303 306 302 299 301 301 301 299 300 302 304 303 302 301 301 300 301 300 297 299 301 300 300 301 300 299 300 300 296 298 303 305 296 298 306 312 317 321 323 322 324 324 326 327 328 329 329 330 332 333
313 313 313 311 311 309 307 299 300 303 301 299 303 305 307 306 306 307 299 290 287 295 301 296 305 300 309 301 307 305 305 300 307 309 311 312 314 308 306 303 304 299 301 300 300 300 301 303 303 302 301 301 301 301 302 301 298 296 300 302 302 301 301 300 299 298 292 293 299 308 298 292 301 307 313 317 319 320 321 322 324 326 327 327 328 329 331 331
313 312 312 311 310 308 300 296 302 303 297 298 304 306 306 306 308 306 294 288 287 299 295 303 302 301 307 303 304 304 291 294 306 308 309 316 310 312 304 300 303 305 304 303 299 299 303 302 302 302 301 300 299 298 302 302 298 297 303 301 300 300 300 300 299 298 295 302 303 304 304 296 296 305 310 315 317 318 318 320 322 324 326 327 327 328 330 331
313 312 311 310 309 308 300 302 301 298 299 303 307 306 306 307 309 304 294 284 286 303 298 297 301 309 306 303 305 300 297 302 298 302 309 312 312 307 307 301 302 301 304 302 294 300 304 300 301 300 300 299 299 301 302 303 300 300 301 301 300 300 300 301 299 296 297 296 295 297 302 295 295 302 310 312 311 314 315 317 320 322 324 326 327 327 329 331
312 311 311 310 308 307 306 301 301 298 304 306 306 306 307 309 306 295 289 284 301 304 311 300 310 304 301 302 300 301 300 303 298 301 307 310 313 306 303 303 303 302 304 304 299 299 304 304 304 304 301 299 301 302 303 303 300 303 301 301 301 301 300 300 297 296 297 294 292 296 299 294 291 297 304 309 310 311 313 316 319 321 322 324 326 327 328 330
312 311 310 310 306 303 301 302 300 305 306 307 306 307 309 307 296 290 286 281 302 293 303 303 300 297 299 296 296 299 296 298 301 302 304 304 307 310 307 307 302 300 299 303 303 301 302 310 310 305 302 304 302 302 304 303 304 304 301 300 298 297 297 298 297 296 297 290 293 298 299 298 291 296 304 305 308 312 314 315 318 321 322 323 326 326 327 328
310 310 309 309 301 303 303 297 300 305 306 306 307 307 305 296 290 283 281 290 300 298 304 298 296 300 296 295 292 298 297 298 298 301 298 304 302 305 304 302 303 298 297 297 299 302 302 303 304 304 309 307 306 302 304 305 304 303 297 296 295 295 295 293 293 295 288 288 293 297 298 299 292 293 301 310 314 315 315 314 315 317 319 321 323 326 327 328
309 308 309 306 306 308 298 297 303 306 306 307 306 303 293 285 286 282 284 300 292 295 293 293 297 296 296 298 297 294 295 297 298 299 298 300 299 300 300 298 298 292 292 293 294 298 298 300 303 303 312 306 303 302 301 302 302 301 298 294 291 285 289 287 289 287 288 288 292 296 297 295 296 298 302 309 313 316 317 317 317 317 319 320 322 324 326 327
307 307 307 307 308 302 304 306 307 306 307 306 304 298 289 283 278 285 288 292 292 296 293 299 295 296 296 295 293 297 297 294 298 298 301 301 300 301 303 302 301 300 291 295 293 292 295 299 300 303 303 308 305 298 296 295 299 299 296 292 289 286 284 282 283 284 284 289 294 295 297 293 297 302 306 309 314 317 319 319 320 319 319 320 321 323 325 326
306 307 303 305 306 306 307 309 308 307 305 305 299 295 288 281 281 299 290 292 292 298 298 295 296 297 296 292 294 296 293 297 296 295 299 298 300 297 300 302 300 301 293 292 293 291 287 289 297 300 297 305 304 303 302 296 296 298 299 296 294 291 285 282 282 285 287 287 291 295 294 290 296 296 307 310 315 318 320 321 321 321 321 321 322 323 324 325
306 305 303 304 304 306 307 308 307 308 306 301 295 287 281 282 286 285 288 290 294 296 294 298 295 294 293 294 296 299 297 293 298 296 295 296 296 298 298 300 301 301 296 291 293 294 293 293 294 302 302 304 303 305 305 300 297 298 300 299 293 293 292 288 285 286 287 287 289 293 291 295 299 303 310 312 314 317 319 320 321 320 321 321 321 321 322 324
304 302 304 300 303 305 307 305 307 307 303 298 289 284 282 286 284 291 289 299 297 292 294 295 294 290 289 289 295 295 299 295 295 296 293 296 298 298 300 301 301 302 298 296 293 290 292 292 300 301 302 302 303 305 304 303 294 295 297 293 297 298 297 291 294 294 294 290 288 293 296 295 298 302 305 310 311 313 316 318 318 319 319 320 320 321 322 323
300 302 298 300 302 306 307 304 307 306 302 296 287 282 288 289 293 295 299 295 295 296 294 288 289 289 288 288 290 294 296 298 294 294 291 295 293 298 299 300 303 302 302 301 295 295 291 290 296 300 298 303 305 304 305 305 300 293 293 296 298 300 300 294 286 289 288 284 286 292 292 291 296 292 304 306 307 311 313 315 317 318 318 318 320 321 322 323
299 299 301 300 302 306 305 305 304 305 300 294 287 293 295 291 298 296 298 297 298 298 291 290 289 293 289 289 288 293 296 293 291 294 290 294 291 299 299 299 301 303 303 304 299 294 297 291 294 299 302 302 304 303 301 303 305 302 297 299 298 288 290 289 287 286 284 285 285 286 291 293 294 296 301 303 306 308 310 313 315 316 317 318 319 321 323 324
298 297 292 300 304 304 304 305 302 302 296 290 288 289 296 295 298 297 298 299 299 297 291 292 289 292 293 290 291 295 295 290 294 292 289 292 292 296 297 298 297 301 304 303 300 297 298 292 292 297 299 301 301 300 294 299 302 303 299 297 299 294 293 289 292 287 288 283 286 284 289 291 297 297 300 304 306 309 311 312 313 315 317 318 320 321 322 323
296 292 290 302 303 304 305 303 302 299 294 288 289 290 297 294 298 300 301 300 296 294 292 292 295 290 293 293 294 291 295 294 293 293 293 292 292 298 295 300 296 298 302 302 301 303 296 295 290 293 299 299 294 297 297 298 297 298 296 295 295 297 295 297 294 293 290 283 281 284 285 289 293 299 303 304 306 309 310 311 313 315 317 319 320 322 323 323
298 292 291 301 304 304 303 299 297 294 292 294 296 294 296 295 299 299 301 301 297 300 296 294 293 290 292 291 291 295 293 294 294 292 294 294 294 289 298 297 299 298 302 301 298 300 296 293 292 293 296 294 294 300 302 301 301 300 299 296 296 294 290 288 289 294 291 289 284 283 287 293 294 304 306 305 306 309 312 313 314 315 317 319 321 322 323 324
293 286 290 302 304 303 297 289 291 295 291 291 292 296 295 302 299 299 300 299 298 295 298 295 295 294 293 292 292 293 294 292 294 293 294 293 294 295 296 300 299 301 300 297 300 300 300 297 295 293 295 296 298 301 304 305 304 303 301 299 298 293 291 290 284 288 292 291 294 291 287 293 299 304 307 307 307 308 310 313 314 316 317 319 321 322 323 325
292 289 299 302 303 300 293 286 293 291 291 293 295 295 297 295 294 295 294 295 293 296 294 293 293 293 294 292 293 294 294 292 294 292 296 296 295 296 297 298 300 302 307 302 305 307 313 295 292 294 296 298 300 301 300 302 303 301 301 302 300 296 296 296 293 290 291 289 290 288 289 290 300 305 306 306 307 307 308 312 314 316 317 318 320 322 322 323
293 292 294 301 303 300 291 284 285 286 289 291 292 292 296 295 294 293 292 294 293 292 292 293 294 295 292 295 294 291 295 289 296 294 293 296 295 299 297 297 300 298 303 301 301 305 295 296 294 289 288 290 294 297 297 299 300 298 298 301 302 302 299 295 293 293 292 290 290 288 288 291 298 307 306 305 306 307 307 309 313 314 316 318 319 321 322 323
293 295 294 297 303 298 289 291 288 287 287 287 289 288 291 292 295 294 293 292 295 293 293 292 293 294 293 296 294 294 295 293 290 294 293 294 294 298 297 297 299 297 305 308 311 305 298 295 294 286 285 284 285 286 289 292 295 297 298 300 301 301 299 296 294 291 290 291 291 288 288 289 296 300 306 304 303 304 305 307 311 314 315 316 318 319 320 322
290 283 291 291 295 295 294 296 293 289 288 288 286 287 290 288 293 295 295 294 295 294 293 293 294 295 293 292 291 291 291 295 291 290 291 292 293 295 296 297 298 298 309 311 309 303 298 299 296 293 290 289 291 293 296 299 295 296 297 298 299 301 302 300 297 292 291 288 291 291 292 294 298 301 301 303 302 303 304 303 308 310 311 314 316 318 319 321
294 286 287 283 292 291 290 292 290 291 287 291 282 287 286 288 290 292 296 290 294 293 292 292 292 290 290 291 289 289 291 291 293 291 291 291 293 294 297 297 297 303 309 304 305 301 297 292 295 296 296 296 297 296 299 300 298 298 297 298 299 299 300 299 296 294 294 290 291 293 294 295 295 295 297 299 303 302 302 301 305 307 310 312 314 316 326 320
286 290 292 294 287 283 286 287 291 289 291 290 286 290 287 287 288 287 293 294 294 294 289 291 291 292 291 290 290 286 289 288 290 288 293 292 291 293 292 296 296 302 302 297 301 297 293 291 295 298 296 297 298 298 300 299 300 299 299 299 298 299 298 297 298 295 296 295 294 295 295 295 295 298 300 301 303 305 304 303 304 306 308 311 313 314 317 320
293 292 292 295 287 289 289 289 291 290 288 289 288 289 286 287 286 289 289 289 291 290 291 285 288 290 290 292 291 287 288 284 285 291 289 289 290 290 289 292 297 297 297 296 296 298 295 290 295 297 295 296 297 298 299 298 298 298 299 299 299 299 298 299 299 297 297 297 298 298 297 297 299 300 301 304 304 304 304 306 308 308 309 312 313 313 315 318
289 289 288 294 292 290 290 290 289 289 286 290 286 287 288 287 286 289 290 288 285 287 292 288 288 290 290 290 291 288 289 290 289 286 291 290 289 291 289 291 291 294 296 293 295 297 294 291 299 296 293 293 296 299 298 298 298 296 297 298 299 300 300 300 300 299 299 298 298 296 296 298 300 301 303 304 304 303 308 308 309 308 311 315 314 315 315 317
295 297 296 289 286 288 291 290 287 286 285 287 286 288 288 288 287 289 288 292 288 287 289 288 290 290 291 290 290 290 293 292 292 291 293 292 287 293 289 291 294 290 293 292 295 295 295 290 296 293 290 290 295 296 297 298 298 297 297 297 297 298 297 299 298 299 297 296 297 295 293 295 299 301 301 302 301 303 303 306 306 308 313 317 316 317 316 316
297 302 299 293 285 291 287 289 289 286 282 287 288 288 287 288 290 291 287 291 292 292 292 291 291 290 289 289 288 290 293 294 294 295 295 295 296 295 295 295 295 292 291 292 295 292 294 292 290 290 288 288 294 296 296 297 295 293 295 298 299 298 299 300 300 302 301 301 297 295 297 299 301 303 301 301 302 301 301 301 304 307 309 314 317 317 318 318
Wind_Speed
20 20 21 20 21 22 22 23 22 22 23 23 22 23 21 20 19 19 18 19 18 19 20 19 19 19 19 19 18 16 14 8 8 2 4 18 15 15 13 6 14 13 16 12 12 12 9 9 10 10 7 7 4 5 7 7 4 4 3 3 6 9 4 5 4 3 3 6 8 13 13 17 13 6 6 11 3 11 10 4 6 4 7 9 11 14 16 17
20 20 20 20 22 22 22 22 22 23 23 23 23 22 22 21 20 20 19 18 18 19 19 19 19 19 19 18 17 15 12 6 6 7 18 22 13 14 18 13 16 16 15 12 16 12 13 10 12 11 10 7 4 4 9 5 8 6 2 4 9 5 7 5 5 3 3 6 7 12 15 20 15 15 9 9 10 11 9 6 8 9 10 12 14 16 17 18
20 20 20 20 21 20 21 21 21 21 22 22 22 22 22 22 22 21 21 20 19 18 19 19 19 19 18 17 14 13 9 6 3 10 18 12 26 19 18 16 18 19 14 8 12 13 14 14 10 10 8 5 6 6 10 5 11 10 5 6 10 8 4 5 5 2 2 11 10 12 12 14 13 12 10 11 14 10 13 11 7 11 14 16 15 17 17 16
21 21 21 21 20 21 21 23 22 23 24 23 24 23 22 22 22 21 22 22 20 20 18 18 19 19 18 16 13 9 2 3 5 6 3 3 7 14 20 18 20 18 7 9 11 11 7 9 10 10 6 6 4 7 6 6 5 4 7 8 6 4 6 11 5 6 2 10 13 13 8 10 13 11 10 14 12 7 7 16 22 17 19 19 19 18 17 17
22 22 22 21 21 23 24 24 25 25 25 25 25 25 24 23 22 23 21 22 20 19 18 17 18 17 17 13 12 3 1 4 5 2 5 8 3 11 17 19 19 13 10 6 7 4 10 12 10 9 5 6 6 3 11 7 8 1 13 15 10 5 3 14 5 4 2 4 12 10 14 13 9 7 11 20 16 12 14 14 14 20 21 23 23 21 17 18
22 22 21 22 25 25 26 25 26 26 25 23 23 24 24 24 23 22 21 20 20 19 17 17 17 17 16 14 7 2 0 2 1 4 4 12 11 8 17 19 19 12 8 9 8 6 8 8 11 9 6 4 8 11 3 11 7 9 10 11 10 7 7 12 10 7 6 4 4 13 13 13 14 11 16 19 17 15 18 18 15 20 23 23 21 21 20 19
23 23 25 25 27 27 27 26 25 23 23 25 26 25 24 24 24 22 22 20 20 19 17 16 16 16 14 13 2 0 2 9 6 11 10 12 12 7 11 16 15 11 10 8 6 7 9 8 10 11 7 6 6 9 11 3 10 10 10 4 8 3 10 13 13 12 4 9 13 10 10 15 12 11 11 14 3 6 13 15 17 16 17 19 20 20 22 21
25 25 26 26 27 26 26 25 26 26 24 23 23 24 25 24 24 25 23 22 19 18 16 15 14 13 10 5 0 1 1 9 17 7 6 7 10 9 9 7 13 11 11 11 9 7 9 10 13 6 7 10 3 12 5 7 6 10 12 11 12 9 12 13 9 11 5 6 13 10 14 15 18 14 11 11 6 13 14 15 16 17 17 17 19 20 17 17
25 27 27 27 27 27 25 26 26 27 26 25 25 25 25 24 23 23 23 20 19 18 16 14 12 10 6 2 1 3 9 8 6 7 6 7 10 12 11 7 5 14 10 9 10 10 8 8 8 9 8 12 8 6 3 4 7 9 12 8 10 10 12 12 12 13 8 5 9 12 16 15 14 8 15 8 9 13 16 16 18 18 18 18 19 19 18 17
27 26 28 28 26 26 26 28 28 27 26 28 28 26 27 25 23 22 21 20 19 18 15 13 10 7 3 2 2 2 8 6 4 6 8 9 10 13 7 6 10 8 6 8 5 6 10 6 12 7 3 6 3 11 1 7 4 3 9 12 14 14 13 13 15 16 8 9 10 14 14 11 6 12 4 3 12 15 16 17 18 19 19 18 17 16 16 18
27 27 28 27 26 27 30 31 31 31 29 28 27 27 27 26 24 22 21 20 19 18 14 12 10 6 3 2 4 9 6 3 3 6 9 10 10 10 9 10 11 9 11 7 11 12 10 8 6 2 3 7 3 6 6 5 1 9 10 10 11 12 13 14 12 14 5 6 12 13 10 6 8 7 11 11 15 19 19 17 18 18 17 16 17 16 14 15
27 27 28 26 27 28 29 28 29 28 29 28 28 27 27 26 25 24 21 20 19 17 14 10 7 5 2 1 7 12 2 4 3 6 6 9 5 6 3 12 13 14 11 8 9 10 9 10 6 6 6 3 10 3 10 5 5 5 5 7 9 7 8 8 8 10 7 5 12 8 9 6 7 11 8 16 17 19 20 19 19 18 17 16 16 14 14 14
26 27 27 27 27 28 29 31 32 31 30 30 29 28 27 27 26 24 22 18 14 12 9 7 8 5 1 3 12 15 13 9 5 5 1 4 1 1 3 4 11 9 12 11 9 10 11 6 5 8 10 2 1 2 4 8 6 3 2 4 6 4 7 9 3 6 9 4 13 10 6 9 12 6 12 16 18 18 18 18 18 15 16 14 15 14 14 13
26 27 28 28 28 30 30 28 29 30 30 31 30 29 28 27 25 24 21 17 13 11 8 11 6 4 2 9 5 3 9 9 7 5 7 4 4 3 4 4 5 3 2 6 6 6 9 6 6 9 2 7 6 3 9 6 4 6 6 1 5 5 8 8 3 4 6 6 15 12 9 7 6 5 15 16 20 22 20 18 18 16 16 15 15 14 15 16
25 27 28 27 28 29 31 30 29 29 30 30 31 28 28 28 25 20 15 8 4 7 11 12 5 4 2 10 4 12 13 0 5 13 8 7 6 1 6 5 7 9 8 8 3 4 7 8 5 5 5 3 5 6 8 3 1 1 3 6 2 6 6 11 3 2 6 1 13 11 8 9 9 11 15 17 18 21 20 19 18 17 16 16 15 15 15 15
24 26 27 27 28 30 29 29 28 29 30 30 32 31 27 22 19 15 1 5 9 15 12 8 3 3 3 11 3 4 2 3 7 13 6 6 8 10 8 11 4 5 4 5 6 1 5 6 7 6 3 1 5 5 7 7 5 1 7 6 7 2 5 8 5 4 11 7 8 17 7 2 1 9 15 16 20 19 19 19 18 18 18 17 15 14 14 12
25 26 27 28 31 31 30 28 27 29 29 30 33 28 24 15 7 12 13 13 10 8 3 2 5 3 1 4 2 1 4 6 4 1 3 10 12 11 5 4 4 6 8 6 2 3 2 6 2 3 4 6 4 3 5 9 8 5 0 5 4 6 3 6 8 5 4 9 8 12 5 9 6 15 15 15 19 18 17 20 19 18 16 16 14 14 15 15
26 26 29 28 29 31 29 28 28 29 31 31 29 24 17 13 4 11 10 7 4 3 2 1 3 0 12 2 5 4 2 4 2 3 7 8 14 8 6 5 4 6 3 1 1 4 4 5 4 6 2 6 6 6 10 13 7 4 4 5 7 1 4 9 4 2 2 9 14 12 5 5 4 16 17 18 18 19 19 19 20 18 16 15 14 15 16 15
29 29 28 30 30 31 28 28 29 30 30 31 22 18 6 1 2 1 4 3 1 1 0 2 4 6 3 1 3 5 3 3 7 3 3 6 4 7 6 3 3 6 3 4 3 9 2 2 2 4 11 10 12 11 11 4 2 3 4 6 2 4 6 6 6 3 3 6 9 12 10 8 8 15 16 16 18 18 18 16 15 16 16 16 15 15 15 16
30 29 29 29 29 28 29 27 29 28 30 18 13 7 0 4 2 1 2 2 4 9 10 4 10 8 16 15 5 3 4 4 3 4 4 4 9 7 6 5 3 4 5 6 2 7 5 8 10 13 9 8 5 7 7 6 6 7 4 4 8 6 9 7 7 2 4 4 8 12 13 11 15 19 20 19 16 13 13 15 15 15 15 16 15 16 17 18
26 27 28 28 27 28 27 29 29 28 25 9 10 3 5 6 5 6 12 15 14 13 15 18 16 17 16 7 1 6 7 3 1 3 2 5 6 13 6 6 4 8 8 8 8 1 6 10 14 7 4 6 5 4 4 5 6 8 7 5 11 7 11 10 3 2 2 2 4 5 5 9 16 17 18 16 18 19 18 17 17 18 17 17 18 18 18 19
26 24 25 25 27 28 28 29 29 27 16 4 5 4 2 5 2 6 4 11 6 12 13 20 15 17 16 19 16 2 5 4 14 12 5 9 6 14 5 10 10 12 6 4 3 2 9 15 8 6 5 4 4 5 5 6 7 7 8 7 8 12 8 11 6 5 5 4 8 7 8 9 12 17 16 19 22 20 19 22 23 21 19 16 16 18 18 14
27 25 26 26 26 28 28 30 29 21 6 8 7 5 2 6 7 6 5 8 17 10 17 17 16 21 20 13 7 8 9 13 12 8 3 10 8 12 11 11 11 7 5 9 12 8 9 11 9 5 6 5 5 4 4 4 4 6 7 7 11 11 0 8 2 1 1 4 2 4 9 5 4 3 14 19 20 16 18 19 17 19 21 21 21 20 19 18
27 28 26 25 26 27 28 31 21 6 9 10 5 4 4 6 8 10 4 4 10 4 13 14 17 13 16 10 7 14 14 5 8 15 7 6 12 6 9 16 11 8 12 13 15 13 12 0 9 7 7 8 9 7 5 6 9 6 7 9 10 14 7 8 4 7 6 5 3 1 1 2 9 8 8 12 14 11 12 11 11 14 17 21 21 20 19 22
26 27 27 24 24 26 30 25 4 6 12 10 5 3 7 8 8 7 3 6 3 9 4 9 6 7 5 6 9 14 12 2 12 8 3 10 8 8 9 6 6 13 11 10 10 12 12 7 6 10 9 8 9 9 10 7 8 9 10 12 13 12 10 5 3 4 6 9 1 3 1 4 9 17 20 16 12 12 10 15 18 18 16 14 14 18 17 17
26 26 25 23 23 24 28 7 3 11 14 5 3 10 10 11 7 7 0 1 8 5 1 4 6 5 7 5 8 6 9 8 12 12 5 6 6 7 4 6 6 14 13 9 10 6 8 5 8 9 10 10 11 11 9 7 10 6 12 7 12 11 10 10 5 3 4 5 6 1 6 6 2 12 15 12 16 19 12 16 19 17 16 17 17 16 17 18
26 28 26 23 21 23 11 5 4 12 9 4 9 12 13 11 9 8 1 3 4 4 5 1 2 2 4 7 11 10 4 10 6 9 8 6 10 4 8 5 4 1 5 2 1 11 6 11 9 8 10 12 10 13 11 10 8 14 2 2 4 6 10 14 5 4 7 3 5 2 2 2 3 9 13 16 18 19 16 17 18 17 17 19 18 18 18 18
29 27 26 25 22 16 4 5 10 7 8 11 10 13 13 10 10 2 1 3 4 2 1 2 4 2 1 11 13 11 3 4 5 8 16 8 5 5 8 10 11 12 9 8 17 1 13 9 14 14 12 10 14 10 5 10 11 9 1 5 6 7 9 9 4 5 6 5 12 5 5 5 4 6 9 17 16 15 17 18 19 20 20 20 19 19 20 20
29 27 26 26 25 18 3 4 4 9 5 6 12 13 10 11 3 1 2 2 1 0 1 4 4 3 2 8 8 10 2 1 1 1 10 4 7 4 11 9 8 8 8 14 13 2 5 13 16 17 12 13 6 6 10 12 14 11 4 3 6 6 5 5 5 5 3 4 11 13 7 6 6 5 5 8 16 19 20 21 21 22 23 22 20 20 20 18
29 27 23 23 22 5 0 2 7 12 11 9 10 13 14 5 1 0 1 4 1 2 1 1 1 1 6 10 5 8 5 4 2 2 8 9 11 1 3 5 4 5 6 7 13 8 2 5 13 10 12 10 7 9 11 12 15 1 5 8 7 5 4 2 4 3 1 8 12 15 7 9 8 7 9 11 14 17 17 16 16 19 19 19 21 21 19 19
26 29 22 20 9 7 7 8 7 6 4 7 12 13 5 2 3 3 6 6 3 5 0 4 5 5 3 2 1 5 6 3 5 6 3 3 4 4 0 4 2 2 2 5 11 10 5 2 4 3 9 7 8 7 9 12 10 9 2 6 3 8 4 4 2 2 6 14 7 10 10 10 10 7 6 9 16 20 20 21 21 21 22 22 20 20 20 20
27 28 27 13 11 3 1 9 11 5 10 9 10 6 1 2 4 7 6 4 0 2 5 4 3 3 5 3 3 2 6 0 3 4 11 11 10 13 10 10 10 7 9 11 12 3 9 14 3 3 8 13 9 10 9 9 10 10 6 4 8 3 2 8 3 8 12 12 2 7 6 3 14 8 7 11 14 20 21 18 21 25 25 23 23 23 20 19
28 26 30 7 10 3 7 13 12 8 5 6 5 2 1 3 6 6 5 2 1 5 1 2 7 12 4 2 3 4 6 6 1 3 9 11 13 13 14 10 9 12 9 11 4 4 9 3 8 10 4 8 10 11 8 8 11 11 11 8 8 7 7 7 3 2 5 6 3 5 5 10 1 7 14 13 16 19 22 22 23 24 24 25 24 22 20 17
29 27 15 8 10 9 10 10 9 4 3 4 1 1 1 3 7 3 10 8 4 5 5 8 15 4 4 2 3 3 0 6 4 2 5 8 10 10 10 10 6 9 3 3 9 7 7 5 13 10 9 9 10 13 12 4 6 11 4 10 11 6 4 5 4 11 10 7 4 3 5 6 9 7 9 14 16 18 20 23 22 21 24 25 25 23 21 19
29 22 8 11 4 6 6 8 8 3 1 3 1 3 7 10 0 2 1 4 5 7 8 12 5 4 3 2 3 1 2 4 9 4 5 7 13 9 12 12 10 5 3 3 3 3 15 10 5 13 7 10 13 8 7 6 5 7 8 5 6 15 6 8 6 3 4 5 5 3 6 6 8 4 9 14 14 17 19 20 20 19 17 16 13 13 16 18
18 13 11 3 4 8 6 7 5 4 3 0 3 4 12 3 3 2 1 2 2 6 14 6 1 4 2 3 3 5 9 4 5 4 4 8 7 13 7 6 12 14 9 12 3 4 3 11 6 2 6 9 14 8 6 10 9 4 8 12 15 6 8 5 5 3 0 2 9 2 4 5 7 5 6 9 13 15 16 19 19 19 18 13 14 15 17 18
12 13 11 12 9 5 6 8 5 2 2 0 4 9 3 4 2 0 2 3 3 8 6 8 5 3 3 3 1 8 10 7 5 4 2 3 4 6 7 7 8 12 12 9 5 4 8 7 2 8 8 12 8 8 10 12 7 5 8 10 2 2 7 8 8 4 7 9 7 2 9 4 3 8 3 5 8 12 12 15 17 18 14 14 16 17 18 20
10 11 8 6 5 5 11 10 7 3 2 2 8 6 1 3 3 4 0 3 3 4 2 2 4 2 2 5 4 8 9 6 5 7 2 1 2 2 9 5 8 12 15 13 10 5 6 10 5 10 14 8 7 5 5 7 11 15 9 7 10 4 9 3 2 11 7 9 5 3 2 6 9 6 3 6 9 12 10 11 14 17 12 14 16 17 18 19
6 6 7 5 10 13 14 14 3 6 3 3 4 5 2 5 3 7 6 4 2 2 3 4 3 1 4 4 4 6 6 4 5 5 5 2 1 6 11 9 2 7 14 18 12 4 6 9 6 4 9 7 5 8 13 12 8 6 4 7 5 7 8 8 9 2 4 5 3 7 3 12 6 7 8 9 9 10 13 13 15 17 16 15 15 15 17 18
7 7 5 4 13 14 15 11 2 4 1 6 3 6 2 4 4 6 7 3 2 1 2 3 1 4 5 3 7 7 3 5 5 2 2 4 3 9 16 13 6 13 14 12 15 11 7 4 13 1 6 6 7 5 12 12 13 10 6 7 4 4 1 6 2 9 7 4 5 2 6 8 6 7 9 10 11 12 11 12 14 16 15 16 17 17 17 19
3 3 5 7 19 14 13 3 4 3 3 2 4 5 6 6 4 4 7 6 3 2 4 3 4 6 2 7 8 3 5 3 4 2 1 6 3 4 13 12 10 14 10 8 4 7 4 4 12 5 6 8 4 7 13 13 13 11 12 12 10 8 4 8 10 1 3 6 6 5 15 6 6 4 10 10 9 10 13 15 15 15 16 18 18 17 18 19
4 7 5 14 20 13 10 7 2 1 1 2 2 4 6 8 7 7 6 4 4 3 3 3 5 7 7 5 3 3 4 3 2 2 3 6 7 6 7 14 13 11 7 2 5 5 5 3 9 13 13 9 11 11 11 15 12 12 11 11 9 5 5 5 6 8 0 5 4 4 4 13 7 8 10 10 10 10 10 10 12 13 15 15 17 19 20 19
3 9 10 15 13 10 7 2 2 6 5 6 11 8 7 4 5 7 7 6 6 4 2 1 2 3 3 2 3 3 6 3 1 2 4 7 5 9 7 16 15 12 9 6 9 8 14 2 5 11 6 4 5 5 4 6 9 10 10 10 11 12 10 12 9 6 7 2 3 1 7 3 4 6 8 8 9 11 6 7 12 10 10 12 14 16 17 16
5 8 7 5 10 6 3 6 7 7 7 10 10 9 6 4 6 9 5 7 3 5 3 3 3 3 5 3 1 2 5 2 3 8 4 7 2 8 13 15 14 8 10 6 4 9 4 3 2 1 3 6 6 5 6 1 3 6 7 11 13 13 15 5 4 1 5 8 8 7 15 1 3 2 7 3 2 4 6 6 8 10 9 12 14 13 12 14
7 4 6 6 5 4 5 5 7 7 8 9 9 10 11 7 5 6 8 8 4 2 4 2 4 8 3 1 1 1 2 3 4 4 7 3 4 4 11 14 11 6 7 10 10 7 5 5 1 5 11 12 11 13 12 9 8 1 3 9 14 18 16 9 13 4 11 3 7 6 3 5 6 6 3 4 6 5 5 6 6 10 11 12 10 9 10 10
3 8 4 4 4 4 2 4 5 8 7 10 11 7 8 10 8 7 6 6 5 9 3 5 5 4 2 4 3 3 3 2 4 4 7 6 6 3 9 11 8 6 15 16 15 7 2 2 4 4 5 8 5 5 4 7 5 14 12 9 12 14 18 16 5 6 13 4 9 8 7 2 2 2 3 5 6 8 9 7 8 8 8 9 9 12 12 13
2 3 5 6 6 2 6 4 8 10 8 10 4 5 9 10 9 5 3 2 8 7 5 1 4 7 4 6 3 4 1 5 3 6 3 5 2 5 8 6 7 11 21 11 16 6 2 2 4 5 5 5 6 12 15 9 13 13 13 15 12 11 13 17 17 16 8 7 15 5 7 7 7 3 5 7 8 8 9 7 7 6 6 9 12 12 13 11
2 3 1 1 2 5 9 5 9 9 9 10 5 6 8 9 7 6 4 3 9 4 5 4 7 7 10 5 3 2 4 6 2 2 2 3 8 8 7 4 2 12 16 10 8 5 3 2 4 5 13 12 11 13 15 13 14 12 15 16 15 14 12 17 19 7 13 13 17 7 9 8 7 8 8 8 9 9 11 7 9 10 6 6 6 8 11 14
3 3 4 3 1 4 3 11 12 9 9 7 5 5 9 8 8 7 7 8 8 5 4 2 4 8 10 7 3 2 3 7 2 1 4 7 6 9 6 4 2 11 12 10 10 2 3 5 3 8 14 15 14 13 13 12 10 10 14 16 17 16 18 19 16 11 15 12 9 11 10 14 11 11 12 12 12 11 7 3 1 3 7 10 8 9 12 14
3 2 2 3 2 6 8 5 5 7 7 9 4 5 3 7 8 11 10 7 8 8 3 4 10 9 8 7 4 2 4 3 7 8 4 5 7 1 3 2 3 5 9 7 8 3 5 6 11 11 9 11 14 11 8 8 12 12 10 13 17 18 19 20 16 14 11 12 10 7 7 11 8 7 10 11 11 3 2 3 7 6 5 8 9 11 12 12
2 1 1 5 6 4 3 2 4 5 5 5 2 7 7 6 7 7 9 7 8 8 5 8 11 12 6 4 6 8 8 5 5 7 8 6 8 2 3 2 6 9 7 7 2 3 2 5 6 6 8 9 6 7 15 16 13 13 15 13 14 18 19 17 15 10 9 12 12 9 8 9 8 9 6 5 5 5 7 6 7 6 7 7 8 10 10 9
1 1 1 2 3 4 4 4 4 3 3 3 4 8 6 9 8 5 7 4 3 3 9 10 9 7 8 8 8 9 7 8 9 9 8 7 8 8 8 8 5 6 4 3 3 5 1 3 6 6 9 5 10 8 14 16 11 7 16 23 18 12 11 10 10 11 16 16 14 15 16 8 14 8 5 7 9 9 7 7 7 9 7 7 9 10 11 10
Wind_Direction
349 350 347 347 345 343 341 339 335 333 332 330 328 329 326 325 323 319 319 319 318 316 317 315 315 314 317 320 323 324 326 324 317 244 201 244 228 211 200 171 136 151 132 120 118 135 153 161 177 164 173 171 214 198 201 210 236 143 215 191 254 246 249 239 230 198 164 126 158 157 152 132 141 158 121 105 119 125 145 116 114 58 89 122 123 134 140 146
350 347 345 344 343 342 340 336 332 331 329 328 327 326 323 322 321 319 317 316 317 317 317 315 313 314 318 320 323 324 329 294 276 255 236 248 238 203 211 183 145 149 130 127 149 164 149 174 176 168 170 196 172 218 155 206 188 202 205 178 242 204 226 196 204 209 124 144 168 159 154 148 160 138 159 127 145 141 123 108 109 103 103 112 131 141 147 154
348 345 343 342 341 337 334 330 329 328 326 327 325 323 323 320 318 316 315 315 317 317 314 314 311 313 316 321 317 329 335 305 264 268 264 230 244 222 209 182 153 156 152 149 169 163 174 168 161 163 185 199 203 212 185 214 168 213 226 238 246 233 267 258 263 274 45 133 156 155 164 146 147 139 163 149 156 152 146 137 129 138 137 141 144 151 155 159
346 342 341 340 335 333 330 332 329 327 329 328 324 322 319 317 314 313 315 315 316 316 315 311 311 314 317 318 321 322 291 275 283 251 263 238 239 208 202 170 159 165 142 148 164 164 142 150 161 175 168 223 213 221 222 201 169 188 207 230 240 243 248 273 249 281 333 149 161 153 150 128 157 154 155 145 134 178 186 170 160 164 153 151 153 158 160 162
344 342 338 335 333 332 333 332 330 331 329 327 325 322 318 315 313 312 312 312 311 312 312 310 311 310 317 315 316 13 299 10 266 235 264 342 268 204 183 161 158 160 156 134 136 143 155 158 164 187 200 208 231 246 238 225 209 223 219 231 244 284 310 271 280 163 141 144 149 153 150 163 146 153 152 153 159 186 192 196 169 155 155 153 159 163 163 165
343 340 336 335 335 335 334 332 332 330 328 324 320 318 315 314 312 309 308 307 308 308 307 310 308 311 318 314 307 224 66 325 297 292 38 38 32 139 152 155 155 150 139 131 154 159 160 165 164 183 205 201 203 209 207 212 193 239 256 245 244 253 264 281 299 313 102 149 191 171 169 147 164 177 175 166 173 196 186 166 163 159 162 160 155 158 165 167
342 340 338 337 336 335 334 333 329 326 323 323 321 316 313 313 308 307 306 304 303 303 304 308 307 310 319 314 260 240 197 264 325 242 5 38 74 71 138 142 135 139 146 137 161 152 189 177 183 196 191 217 254 227 236 197 203 240 262 264 272 242 246 262 274 275 263 175 196 190 156 161 166 164 188 191 240 155 152 158 159 156 147 149 157 167 169 170
342 340 339 338 337 335 333 330 328 326 324 320 317 312 311 308 310 307 303 300 298 297 302 303 305 309 322 318 56 330 71 249 244 284 284 89 102 113 112 121 139 139 147 167 171 181 168 195 195 175 213 195 194 202 226 220 226 229 252 264 272 270 259 263 259 266 253 220 191 171 168 180 177 172 160 213 145 143 142 143 144 150 154 160 160 165 168 169
341 340 339 338 336 334 330 328 328 326 324 319 316 315 309 308 302 299 297 295 295 294 296 298 299 297 309 320 157 337 259 233 245 259 168 114 120 123 133 128 160 148 176 175 181 182 152 214 212 193 211 218 246 280 182 181 248 229 246 276 274 271 275 275 273 268 224 217 180 168 185 188 186 132 176 177 138 141 140 142 148 152 159 166 169 168 168 171
341 339 338 337 334 331 329 330 328 326 322 321 317 311 309 305 300 296 294 291 290 292 290 288 289 290 269 198 114 224 263 218 277 293 167 124 124 131 156 144 164 166 145 194 175 173 185 192 204 210 327 305 244 247 227 201 237 188 228 244 256 263 268 271 266 268 240 195 180 181 187 184 186 146 210 172 143 138 142 148 154 157 165 170 169 171 171 172
340 338 337 336 333 330 331 331 329 326 323 318 315 311 309 301 298 295 291 288 286 285 284 276 270 231 198 223 159 232 241 92 350 37 113 124 129 150 170 163 170 163 178 171 188 187 201 209 178 170 256 243 333 277 216 235 286 264 264 269 261 257 252 255 258 255 245 207 183 184 178 149 194 186 181 158 152 149 149 156 159 162 167 171 172 172 173 177
340 339 337 334 332 331 331 329 327 323 320 317 314 311 304 302 299 295 290 285 281 279 274 264 212 187 279 149 210 220 207 140 93 62 106 129 162 208 196 164 171 183 168 165 207 208 206 203 148 184 209 124 244 322 274 241 239 276 259 273 268 270 269 251 238 243 215 225 176 161 85 153 190 211 175 155 153 156 154 159 165 167 168 171 173 171 175 180
339 338 337 335 333 330 331 331 329 324 321 318 315 310 305 302 300 295 289 285 274 260 244 210 177 204 167 260 235 241 279 268 265 324 283 180 217 157 128 184 191 180 180 173 198 206 206 192 186 208 222 248 186 179 296 323 296 273 269 225 293 321 286 263 222 236 220 218 158 142 195 210 205 204 158 158 156 155 154 162 168 169 169 172 174 176 177 177
338 337 337 335 332 332 332 329 326 323 319 319 314 309 307 305 301 295 289 273 256 241 204 177 164 168 160 246 270 238 237 253 299 296 264 174 176 237 163 168 200 228 230 205 216 190 188 193 191 222 254 234 258 354 322 316 312 279 266 173 244 287 262 271 183 241 220 173 166 175 211 226 222 199 165 164 158 159 164 167 172 172 171 173 176 177 181 184
337 336 334 334 331 331 332 329 327 321 320 320 313 310 310 309 306 299 290 273 234 181 168 155 177 132 168 267 271 265 243 148 258 244 209 159 177 284 202 163 188 199 206 216 223 171 183 171 190 216 233 223 268 291 288 302 330 281 339 258 323 206 278 281 250 200 220 242 174 174 218 206 207 174 173 166 167 162 164 170 173 175 177 176 176 177 184 188
335 334 334 331 332 332 331 329 325 322 322 319 315 314 309 309 307 308 18 105 125 139 140 127 192 208 321 292 260 349 90 155 247 237 229 177 179 203 192 188 176 186 195 255 237 272 161 150 187 193 232 164 217 229 292 312 286 302 202 267 253 192 253 329 285 195 215 173 188 179 205 93 296 179 174 173 167 170 166 172 174 177 180 179 178 178 182 181
336 333 333 332 332 333 331 328 325 324 323 320 318 312 315 314 349 76 101 118 122 137 192 103 148 217 168 227 315 212 238 229 217 59 169 199 189 198 149 144 191 196 195 240 215 231 268 163 202 194 201 214 167 166 251 261 260 264 336 224 215 223 255 270 302 305 218 164 195 205 151 203 161 169 178 178 172 171 172 175 177 178 182 183 179 178 181 186
336 334 333 331 332 331 331 328 327 326 324 320 319 308 305 304 113 87 92 94 109 146 206 237 179 230 269 294 261 237 289 285 135 195 184 196 191 186 171 177 210 184 135 248 236 201 188 218 171 217 177 196 169 175 193 232 213 225 238 268 278 283 223 245 266 272 52 189 180 195 201 198 174 168 177 180 179 176 179 177 178 179 181 182 182 183 185 188
336 335 332 331 331 331 329 328 328 328 326 320 306 292 296 80 232 277 98 155 131 8 344 217 147 157 204 221 268 334 283 258 293 227 219 140 203 189 197 176 159 125 170 154 273 184 193 211 176 202 217 192 207 204 220 233 248 208 192 225 236 270 265 233 248 284 218 214 207 185 194 194 166 179 180 182 181 183 185 179 176 181 182 183 184 186 188 192
336 334 333 331 329 329 329 327 328 328 327 328 344 352 352 4 350 317 255 275 231 228 253 211 214 275 305 285 266 257 279 287 253 252 160 169 127 169 188 177 173 150 153 188 199 216 137 201 207 214 214 212 214 211 218 219 242 265 249 262 257 250 269 256 257 241 243 203 217 204 206 185 180 182 184 182 178 187 182 180 183 184 184 186 188 190 193 195
335 334 332 330 329 328 328 328 327 328 325 316 312 2 57 8 2 321 329 285 261 251 240 251 220 225 231 274 344 34 15 303 238 290 180 167 140 136 200 161 165 197 197 188 185 247 147 219 227 213 196 190 208 208 202 230 239 240 253 258 275 251 260 255 270 170 264 167 275 251 237 208 192 186 181 175 177 190 186 186 187 188 189 189 189 192 195 201
335 333 331 330 329 329 327 327 326 326 317 278 355 39 120 39 352 295 303 299 263 229 239 240 241 245 243 247 249 327 19 298 303 273 255 159 167 159 201 178 179 201 176 180 185 179 204 226 221 198 179 179 202 209 198 207 238 243 234 252 270 265 248 284 254 234 202 188 247 203 201 231 215 188 177 178 189 193 189 186 188 184 187 191 195 196 196 193
334 333 334 331 331 330 329 322 326 321 339 7 2 317 33 348 333 305 263 265 276 224 232 234 236 238 243 238 229 149 220 226 241 270 209 158 166 195 154 184 190 175 168 182 196 187 226 239 210 179 167 186 235 221 207 232 240 238 246 242 244 254 303 285 332 266 338 176 269 191 200 210 190 229 191 192 191 195 195 193 189 187 186 190 194 194 193 193
334 333 333 336 332 332 329 322 315 315 351 322 262 222 330 344 341 331 343 256 298 267 208 223 218 229 230 204 188 175 194 218 166 257 201 157 167 158 158 186 173 179 199 193 202 204 210 208 171 174 177 184 220 226 214 220 250 245 231 242 248 257 231 213 258 345 322 293 281 175 123 109 153 175 215 222 212 204 194 192 202 206 203 197 196 195 192 189
330 333 336 336 338 334 327 320 39 352 319 312 193 248 337 343 344 341 320 302 254 275 210 269 190 242 233 110 146 176 212 251 209 216 167 168 167 133 207 166 154 203 198 191 206 222 231 233 148 185 190 197 206 230 222 193 247 257 246 228 244 256 271 246 334 21 360 309 280 141 5 271 192 187 197 197 198 211 198 194 202 203 205 208 208 202 199 200
329 333 337 338 339 341 320 342 14 354 329 297 332 347 338 335 330 333 349 1 300 265 139 278 137 272 132 189 147 170 98 234 202 216 169 186 186 178 118 193 178 200 193 175 200 222 220 174 168 184 193 202 210 225 216 183 233 242 247 204 244 261 270 273 274 351 284 251 284 139 181 266 255 195 199 198 198 205 197 201 206 204 203 205 207 204 199 196
328 333 336 340 343 345 3 326 343 335 353 316 348 332 327 325 326 322 21 295 308 217 166 147 160 218 171 165 149 141 108 259 146 195 190 201 178 161 160 194 161 152 162 155 55 230 158 179 185 186 189 200 210 220 214 189 209 241 221 158 240 249 255 264 264 183 245 273 276 282 133 208 273 227 202 196 198 205 202 206 208 206 206 208 207 205 203 199
328 332 334 338 340 341 219 285 324 324 240 262 319 320 315 321 316 213 113 340 292 179 173 209 222 143 149 169 166 176 203 142 118 228 189 174 153 165 200 191 185 174 170 153 214 42 169 182 187 195 198 205 215 211 182 185 211 240 138 199 246 237 249 262 246 225 239 257 274 255 177 243 236 258 211 188 200 207 210 209 210 209 209 210 208 207 206 201
326 328 335 333 337 315 275 183 272 271 253 307 312 307 316 312 274 114 169 230 278 311 75 86 275 80 32 153 191 219 355 265 78 227 151 139 210 116 205 205 183 174 191 185 211 194 183 185 191 194 196 220 204 196 198 189 220 234 224 232 235 246 248 231 239 219 247 201 246 254 164 216 268 255 165 203 201 202 208 211 211 208 209 206 208 210 208 204
324 323 334 336 333 334 315 210 229 248 281 299 293 308 308 295 100 72 235 231 318 304 202 191 88 231 133 160 228 241 269 306 347 70 153 168 196 132 308 135 151 158 206 213 224 197 207 192 185 187 205 211 185 204 199 208 220 150 179 229 261 274 263 274 198 160 258 239 231 245 206 182 252 238 187 164 209 202 209 215 215 215 215 211 211 208 204 203
322 321 329 339 326 312 309 303 263 241 259 297 317 304 279 16 129 132 224 228 315 240 31 35 21 17 50 155 255 250 275 282 331 133 125 125 156 190 156 95 78 124 222 228 232 224 237 269 171 227 188 202 184 206 212 208 210 206 155 197 251 282 311 304 307 106 221 252 227 225 224 171 227 265 257 206 186 202 201 205 208 211 211 211 211 211 208 204
322 321 323 339 282 280 266 284 291 335 319 314 315 335 75 226 353 200 213 344 216 313 59 310 49 357 304 266 249 185 202 288 213 170 165 179 172 183 205 188 157 177 212 205 227 165 226 223 212 279 190 187 189 202 221 206 207 198 194 144 171 258 179 255 190 242 222 236 245 208 198 241 232 229 206 213 204 194 203 206 207 209 209 209 211 209 207 203
322 321 318 316 283 271 239 247 281 294 307 312 320 357 80 136 230 213 276 310 237 17 10 344 342 317 274 315 258 218 188 234 254 230 181 187 180 201 201 194 182 187 190 204 185 137 243 242 228 231 273 201 174 189 192 214 209 195 195 181 172 207 214 231 238 300 300 268 249 193 190 234 273 252 215 203 205 200 198 207 211 208 207 208 208 208 205 201
319 320 319 311 295 263 262 274 271 279 304 315 302 77 60 206 241 198 216 251 249 41 37 7 318 284 245 166 252 158 176 232 175 232 180 186 193 195 208 215 178 202 101 141 192 178 223 241 232 183 229 166 197 202 194 177 173 209 179 168 202 199 175 211 197 218 228 231 262 226 140 228 188 249 200 203 202 207 204 205 210 211 212 209 205 203 198 198
316 309 302 306 285 276 254 269 283 206 125 354 138 177 187 221 343 225 243 342 333 351 356 330 294 317 314 287 287 5 350 272 198 169 194 176 199 200 196 203 202 178 112 134 235 154 217 234 264 210 194 159 210 203 178 153 184 204 186 149 175 218 141 224 199 179 258 271 275 193 205 186 200 238 200 197 203 205 208 210 211 215 219 216 211 203 199 202
318 315 321 264 309 296 301 331 346 140 125 70 151 201 223 176 200 29 360 300 345 347 326 322 322 33 306 315 334 6 20 33 319 205 220 196 204 204 198 199 195 191 182 201 145 204 115 243 193 75 211 188 203 177 201 150 205 210 131 204 212 133 182 238 273 228 158 11 252 168 277 293 305 316 249 207 195 206 210 212 209 213 216 202 201 201 201 202
324 318 339 323 312 265 296 341 332 166 100 21 175 235 236 300 203 122 359 43 319 318 336 19 319 61 327 306 326 18 351 342 33 8 291 178 227 213 210 221 193 198 206 178 251 190 165 248 242 165 225 232 209 181 192 187 150 124 191 214 91 184 201 188 220 246 234 238 260 197 221 277 194 254 286 207 203 216 205 211 214 216 207 196 202 202 200 201
318 306 291 273 263 290 330 338 328 182 170 213 228 236 12 254 325 303 197 9 357 342 320 38 280 255 17 5 315 6 350 12 343 16 320 287 263 330 210 211 205 204 201 201 202 244 169 268 251 199 209 208 206 190 273 253 193 211 212 158 168 195 214 231 122 230 218 232 264 287 251 238 193 238 200 222 203 214 220 220 218 218 200 203 206 206 204 204
297 294 323 299 341 342 332 329 306 169 139 229 237 265 257 241 295 285 313 329 231 237 303 223 216 344 36 334 298 325 350 328 340 356 354 304 227 20 50 337 319 306 221 196 213 205 173 221 268 207 185 203 182 152 217 219 252 255 91 184 184 133 202 174 203 157 151 263 249 279 164 245 190 205 190 198 210 213 208 210 217 220 206 202 205 203 203 205
346 339 269 341 332 336 326 315 145 166 165 211 200 238 303 318 287 287 289 323 301 71 267 330 344 306 320 267 329 306 331 289 285 256 280 288 71 60 25 7 331 309 330 257 215 181 234 146 242 275 224 162 218 181 203 202 205 210 211 204 209 216 254 193 155 190 203 187 199 229 264 254 245 206 176 197 199 216 211 214 217 219 210 205 204 202 202 204
303 247 278 353 331 335 328 343 118 180 211 267 290 285 296 281 319 308 312 300 299 185 219 256 289 276 312 326 308 303 294 331 322 288 245 324 343 288 27 357 328 338 321 357 280 218 223 175 228 210 222 206 222 192 202 206 203 208 200 211 198 179 134 180 238 64 139 187 220 178 250 267 265 199 189 191 211 204 206 201 213 219 214 207 208 206 204 206
339 315 289 344 315 336 348 11 345 312 325 308 260 299 292 312 278 271 275 310 285 296 214 238 240 245 268 269 322 4 346 305 259 275 195 189 48 63 355 347 357 315 331 60 299 324 308 205 205 228 221 211 209 212 203 208 203 208 189 213 190 174 129 172 213 234 355 248 128 193 242 258 228 192 199 193 201 209 210 200 211 219 220 215 210 208 208 206
288 267 296 294 293 335 349 18 4 20 354 342 339 339 328 339 319 354 356 17 350 342 325 311 333 13 45 55 355 328 10 274 291 269 14 14 64 62 5 4 347 2 360 6 328 13 342 219 243 248 284 290 274 256 249 225 202 212 213 198 187 201 194 216 213 183 188 235 209 325 244 279 239 175 210 205 195 203 216 193 207 216 223 226 221 217 211 210
287 292 319 272 300 313 23 17 8 359 345 336 349 322 327 317 343 351 347 346 357 335 349 316 306 47 319 28 357 5 335 343 67 45 28 3 333 44 28 1 358 5 11 360 328 348 8 306 21 299 261 255 265 315 283 242 184 211 206 208 207 204 205 201 107 121 218 197 173 152 243 259 282 285 204 237 307 194 209 213 201 216 225 222 223 222 219 215
292 246 224 284 311 344 32 359 21 345 350 337 337 329 351 354 349 334 328 313 304 287 322 332 336 327 307 356 5 3 1 7 312 17 359 318 310 16 18 358 338 348 343 340 351 315 202 255 299 192 215 218 212 214 218 217 224 314 228 216 211 205 203 178 220 168 215 260 161 202 237 250 277 301 219 208 212 220 231 221 223 213 215 217 223 218 215 222
342 319 313 328 327 333 58 5 28 360 342 352 347 317 347 327 336 332 351 313 44 358 345 290 307 292 336 28 22 352 333 82 44 324 337 321 352 16 5 338 324 316 350 350 356 338 252 270 226 225 214 255 271 296 239 160 166 214 218 213 222 218 206 203 191 190 216 201 210 215 156 230 276 269 292 267 252 233 232 232 229 228 230 222 215 214 207 206
294 271 309 344 329 47 345 6 10 3 349 339 326 304 329 315 311 322 22 303 11 354 321 271 2 25 357 19 356 325 346 350 309 303 271 333 340 302 329 314 315 2 357 351 358 333 9 341 275 284 254 251 290 279 286 225 211 208 209 224 223 216 212 211 205 222 134 138 242 186 195 196 240 263 266 275 267 258 260 247 232 238 229 210 213 214 214 205
300 268 304 13 314 303 346 338 1 334 329 333 290 308 300 310 331 337 355 51 341 3 13 327 27 15 360 350 345 9 323 328 276 256 353 353 318 330 339 350 291 6 3 349 358 15 322 268 288 325 311 310 299 287 283 271 240 217 203 211 217 217 211 214 221 196 165 204 227 201 193 195 230 225 225 239 235 239 241 229 219 223 236 242 235 220 214 213
232 289 293 316 49 314 303 290 315 314 324 319 295 303 323 339 335 355 351 329 346 337 10 302 345 350 343 341 46 282 10 345 338 2 5 317 340 338 328 346 7 18 1 344 348 343 307 252 263 331 309 308 307 300 293 263 254 247 216 208 209 209 218 219 217 201 200 218 214 216 190 207 202 213 215 229 238 231 241 222 269 215 226 226 219 226 225 221
287 327 304 9 256 284 283 298 300 316 314 312 324 299 311 319 337 346 345 344 326 309 347 10 319 326 322 322 308 314 271 238 282 303 314 332 319 326 291 240 294 6 0 341 323 345 34 292 327 322 312 306 303 304 306 279 240 242 248 220 208 210 216 219 217 206 206 233 227 224 192 231 250 225 217 220 237 269 354 255 232 225 208 196 205 215 222 226
259 164 275 306 300 254 261 268 295 306 302 305 301 313 346 311 333 333 300 274 263 283 330 329 315 311 302 302 309 286 283 290 275 277 295 289 275 303 326 284 10 320 345 325 316 312 2 269 315 312 323 309 309 350 330 327 307 248 236 241 222 208 214 216 215 197 179 206 221 229 229 242 259 240 248 276 284 248 229 234 242 247 208 200 196 217 215 215
228 268 180 242 279 299 317 264 268 290 288 266 328 325 323 308 312 318 321 290 288 303 322 307 309 305 307 311 293 278 295 306 298 290 283 268 261 266 251 268 276 265 261 257 275 281 219 312 317 320 312 261 283 316 320 314 315 275 234 224 220 220 213 214 221 206 201 189 198 216 228 212 226 209 194 246 239 246 253 231 244 258 244 202 207 214 216 209